Voltar ao catálogo

SL-14 DEB

AtivoPO
NORAD 47092·DEBRIS·🇷🇺 Russia

Lançado Aug 15, 1991 de Plesetsk Cosmodrome

Loading…

Próximas Passagens (próximas 24 horas)

TLE

AtualizadoSource: Space-Track

Época: Sep 13, 2026, 18:05 UTC

1 47092U 91056DS  26256.75369928  .00001020  00000-0  17537-2 0  9991
2 47092  82.5688  14.5844 0084481 324.3275  35.2234 13.42171115286212

Acompanhe SL-14 DEB em tempo real com AllMySat

Download on the App Store